Location: Goheenville
(40.9070°N, 79.3720°W)
Time: 20:19:02
(UTC-04:00)

Cosmos 1727 Rocket - Visible Passes

Search period start: 26 May 2016 00:00
Search period end: 05 June 2016 00:00
Orbit: 962 x 995 km, 82.9° (Epoch: 26 May)

Date Brightness Start Highest point End Pass type
(mag) Time Alt. Az. Time Alt. Az. Time Alt. Az.
26 May 7.0 04:31:28 10° NE 04:34:27 13° ENE 04:37:25 10° E visible
27 May 6.5 04:56:15 10° NNE 05:01:21 25° ENE 05:06:24 10° SE visible
29 May 7.1 04:05:44 10° NE 04:08:02 12° ENE 04:10:18 10° E visible
30 May 6.6 04:30:07 10° NNE 04:34:59 22° ENE 04:39:46 10° ESE visible
31 May 5.5 04:55:46 10° N 05:01:42 40° ENE 05:07:33 10° SE visible
01 Jun 7.1 03:40:24 10° NE 03:41:36 10° ENE 03:42:46 10° ENE visible
02 Jun 6.6 04:04:02 10° NNE 04:08:35 20° ENE 04:13:05 10° ESE visible
03 Jun 5.6 04:29:33 10° N 04:35:21 36° ENE 04:41:04 10° SE visible
04 Jun 4.5 04:55:35 10° N 05:01:54 66° E 05:08:08 10° SSE visible
